Laramie, WY

6:32 PM MST on December 10, 2016 (GMT -0700)
Laramie Regional

Weather History for KLAR - April, 2014

Change the Weather History Date:

Wednesday, April 9, 2014

  Actual Average Record
Temperature  
Mean Temperature 50 °F 36 °F  
Max Temperature 66 °F 49 °F 72 °F (1977)
Min Temperature 34 °F 23 °F -3 °F (1973)
Degree Days  
Heating Degree Days 15 29  
Month to date heating degree days 263 270  
Since 1 July heating degree days 7304 7505  
Cooling Degree Days 0 0  
Month to date cooling degree days 0 0  
Year to date cooling degree days 0 0  
Moisture  
Dew Point 21 °F    
Average Humidity 32    
Maximum Humidity 48    
Minimum Humidity 15    
Precipitation  
Precipitation 0.00 in 0.03 in 0.23 in (2008)
Month to date precipitation T 0.24  
Year to date precipitation 1.73 1.43  
Sea Level Pressure  
Sea Level Pressure 29.84 in    
Wind  
Wind Speed 21 mph (WSW)    
Max Wind Speed 44 mph    
Max Gust Speed 58 mph    
Visibility 10 miles    
Events      
T = Trace of Precipitation, MM = Missing Value Source: NWS Daily Summary

Daily Weather History Graph

Daily Weather History Graph

Search for Another Location

Airport or City:

Trip Planner

Search our weather history database for the weather conditions in past years. The results will help you decide how hot, cold, wet, or windy it might be!

Date:

Astronomy

Apr. 09, 2014 Rise Set
Actual Time 6:32 AM MDT 7:36 PM MDT
Civil Twilight 6:04 AM MDT 8:04 PM MDT
Nautical Twilight 5:30 AM MDT 8:38 PM MDT
Astronomical Twilight 4:55 AM MDT 9:14 PM MDT
Moon 2:24 PM MDT (4/9) 3:26 AM MDT (4/9)
Length of Visible Light 14h 00m
Length of Day
13h 03m
Waxing Gibbous, 72% of the Moon is Illuminated
Apr 9
Waxing Gibbous
Apr 15
Full
Apr 22
Last Quarter
Apr 29
New
May 6
First Quarter

Hourly Weather History & Observations

Time (MDT) Temp. Windchill Dew Point Humidity Pressure Visibility Wind Dir Wind Speed Gust Speed Precip Events Conditions
12:53 AM 39.9 °F 36.7 °F 21.9 °F 49% 29.97 in 10.0 mi ESE 4.6 mph - N/A   Clear
1:53 AM 45.0 °F - 21.0 °F 39% 29.94 in 10.0 mi Calm Calm - N/A   Clear
2:53 AM 42.1 °F 40.2 °F 19.9 °F 41% 29.93 in 10.0 mi SSW 3.5 mph - N/A   Clear
3:53 AM 42.1 °F 39.2 °F 19.9 °F 41% 29.92 in 10.0 mi Variable 4.6 mph - N/A   Clear
4:53 AM 37.0 °F 28.9 °F 19.9 °F 50% 29.94 in 10.0 mi West 12.7 mph - N/A   Clear
5:53 AM 39.0 °F 31.8 °F 21.0 °F 49% 29.93 in 10.0 mi West 11.5 mph 16.1 mph N/A   Clear
6:53 AM 42.1 °F 31.9 °F 21.0 °F 43% 29.89 in 10.0 mi WSW 26.5 mph - N/A   Clear
7:53 AM 48.0 °F - 21.9 °F 36% 29.91 in 10.0 mi West 24.2 mph 31.1 mph N/A   Clear
8:53 AM 52.0 °F - 21.0 °F 30% 29.89 in 10.0 mi WSW 26.5 mph - N/A   Clear
9:53 AM 55.9 °F - 21.0 °F 26% 29.86 in 10.0 mi WSW 25.3 mph - N/A   Clear
10:53 AM 60.1 °F - 21.0 °F 22% 29.85 in 10.0 mi West 21.9 mph - N/A   Mostly Cloudy
11:53 AM 63.0 °F - 19.9 °F 19% 29.82 in 10.0 mi West 25.3 mph 33.4 mph N/A   Scattered Clouds
12:53 PM 64.0 °F - 18.0 °F 17% 29.79 in 10.0 mi WSW 31.1 mph 39.1 mph N/A   Clear
1:53 PM 64.9 °F - 16.0 °F 15% 29.75 in 10.0 mi West 32.2 mph 47.2 mph N/A   Partly Cloudy
2:53 PM 62.1 °F - 17.1 °F 18% 29.75 in 10.0 mi West 28.8 mph 38.0 mph N/A   Scattered Clouds
3:53 PM 63.0 °F - 19.9 °F 19% 29.73 in 10.0 mi WSW 28.8 mph 36.8 mph N/A   Mostly Cloudy
4:53 PM 63.0 °F - 19.9 °F 19% 29.75 in 10.0 mi WSW 32.2 mph 39.1 mph N/A   Partly Cloudy
5:53 PM 59.0 °F - 19.9 °F 22% 29.76 in 10.0 mi West 24.2 mph 43.7 mph N/A   Clear
6:53 PM 55.0 °F - 24.1 °F 30% 29.77 in 10.0 mi West 27.6 mph 36.8 mph N/A   Mostly Cloudy
7:53 PM 52.0 °F - 25.0 °F 35% 29.75 in 10.0 mi WSW 25.3 mph 31.1 mph N/A   Mostly Cloudy
8:53 PM 54.0 °F - 21.0 °F 28% 29.73 in 10.0 mi West 29.9 mph 44.9 mph N/A   Partly Cloudy
9:35 PM 48.9 °F - 26.1 °F 41% 29.99 in 10.0 mi SW 15.0 mph - N/A   Partly Cloudy
9:53 PM 48.0 °F - 25.0 °F 41% 29.78 in 10.0 mi WSW 10.4 mph - N/A   Partly Cloudy
10:53 PM 48.0 °F - 19.0 °F 32% 29.76 in 10.0 mi West 12.7 mph - N/A   Clear
11:53 PM 50.0 °F - 19.9 °F 31% 29.76 in 10.0 mi West 29.9 mph 41.4 mph N/A   Overcast